Harvey, ND

2:58 PM CDT on March 27, 2017 (GMT -0500)
Harvey

Weather History for K5H4 - May, 2014

Change the Weather History Date:

Saturday, May 10, 2014

  Actual Average (KRUG) Record (KRUG)
Temperature  
Mean Temperature 46 °F -  
Max Temperature 60 °F 65 °F 89 °F (1977)
Min Temperature 32 °F 40 °F 28 °F (1979)
Degree Days  
Heating Degree Days 19    
Moisture  
Dew Point 37 °F    
Average Humidity 74    
Maximum Humidity 100    
Minimum Humidity 29    
Precipitation  
Precipitation 0.16 in - - ()
Sea Level Pressure  
Sea Level Pressure 29.72 in    
Wind  
Wind Speed 9 mph (SE)    
Max Wind Speed 18 mph    
Max Gust Speed 23 mph    
Visibility 8 miles    
Events Rain    
Averages and records for this station are not official NWS values.
T = Trace of Precipitation, MM = Missing Value Source: NWS Daily Summary

Daily Weather History Graph

Daily Weather History Graph

Search for Another Location

Airport or City:

Trip Planner

Search our weather history database for the weather conditions in past years. The results will help you decide how hot, cold, wet, or windy it might be!

Date:

Astronomy

May. 10, 2014 Rise Set
Actual Time 6:08 AM CDT 9:04 PM CDT
Civil Twilight 5:32 AM CDT 9:40 PM CDT
Nautical Twilight 4:46 AM CDT 10:27 PM CDT
Astronomical Twilight 3:50 AM CDT 11:23 PM CDT
Moon 4:44 PM CDT (5/10) 4:02 AM CDT (5/10)
Length of Visible Light 16h 08m
Length of Day
14h 56m
Waxing Gibbous, 82% of the Moon is Illuminated
May 10
Waxing Gibbous
May 14
Full
May 21
Last Quarter
May 28
New
Jun 5
First Quarter

Hourly Weather History & Observations

Time (CDT) Temp. Windchill Dew Point Humidity Pressure Visibility Wind Dir Wind Speed Gust Speed Precip Events Conditions
12:15 AM 44.6 °F 39.7 °F 30.2 °F 57% 29.72 in 10.0 mi South 9.2 mph - N/A   Clear
12:35 AM 44.6 °F 39.7 °F 32.0 °F 61% 29.73 in 10.0 mi South 9.2 mph - N/A   Clear
12:55 AM 44.6 °F 40.2 °F 32.0 °F 61% 29.73 in 10.0 mi South 8.1 mph - N/A   Clear
1:15 AM 44.6 °F 39.2 °F 32.0 °F 61% 29.73 in 10.0 mi South 10.4 mph - N/A   Clear
1:35 AM 42.8 °F 37.0 °F 32.0 °F 66% 29.73 in 10.0 mi South 10.4 mph - N/A   Clear
1:55 AM 42.8 °F 37.5 °F 32.0 °F 66% 29.72 in 10.0 mi South 9.2 mph - N/A   Clear
2:15 AM 42.8 °F 37.5 °F 32.0 °F 66% 29.72 in 10.0 mi South 9.2 mph - N/A   Clear
2:35 AM 41.0 °F 35.8 °F 32.0 °F 70% 29.71 in 10.0 mi South 8.1 mph - N/A   Clear
2:55 AM 41.0 °F 35.2 °F 32.0 °F 70% 29.71 in 10.0 mi South 9.2 mph - N/A   Clear
3:15 AM 41.0 °F 35.8 °F 32.0 °F 70% 29.71 in 10.0 mi South 8.1 mph - N/A   Clear
3:35 AM 39.2 °F 35.9 °F 32.0 °F 75% 29.71 in 10.0 mi South 4.6 mph - N/A   Clear
3:55 AM 39.2 °F 34.2 °F 32.0 °F 75% 29.71 in 10.0 mi South 6.9 mph - N/A   Clear
4:15 AM 39.2 °F 35.9 °F 32.0 °F 75% 29.72 in 10.0 mi South 4.6 mph - N/A   Clear
4:35 AM 35.6 °F 32.8 °F 32.0 °F 87% 29.72 in 10.0 mi South 3.5 mph - N/A   Clear
4:55 AM 37.4 °F - 32.0 °F 81% 29.72 in 10.0 mi Calm Calm - N/A   Clear
5:15 AM 33.8 °F 30.8 °F 32.0 °F 93% 29.72 in 10.0 mi South 3.5 mph - N/A   Clear
5:35 AM 32.0 °F 28.7 °F 32.0 °F 100% 29.72 in 10.0 mi SSE 3.5 mph - N/A   Clear
5:55 AM 32.0 °F 28.7 °F 32.0 °F 100% 29.72 in 10.0 mi South 3.5 mph - N/A   Clear
6:15 AM 33.8 °F 29.6 °F 32.0 °F 93% 29.72 in 10.0 mi SSE 4.6 mph - N/A   Clear
6:35 AM 32.0 °F 27.5 °F 32.0 °F 100% 29.72 in 10.0 mi SSE 4.6 mph - N/A   Clear
6:55 AM 32.0 °F 27.5 °F 32.0 °F 100% 29.73 in 10.0 mi SE 4.6 mph - N/A   Clear
7:15 AM 35.6 °F 32.8 °F 35.6 °F 100% 29.73 in 10.0 mi SSE 3.5 mph - N/A   Clear
7:35 AM 37.4 °F 34.9 °F 35.6 °F 93% 29.73 in 10.0 mi SE 3.5 mph - N/A   Clear
7:55 AM 41.0 °F 38.0 °F 35.6 °F 81% 29.73 in 10.0 mi SSE 4.6 mph - N/A   Clear
8:15 AM 46.4 °F 42.4 °F 35.6 °F 66% 29.73 in 10.0 mi South 8.1 mph - N/A   Clear
8:35 AM 48.2 °F - 35.6 °F 62% 29.73 in 10.0 mi South 6.9 mph - N/A   Clear
8:55 AM 50.0 °F - 35.6 °F 58% 29.73 in 10.0 mi South 10.4 mph - N/A   Clear
9:15 AM 51.8 °F - 33.8 °F 50% 29.73 in 10.0 mi South 9.2 mph - N/A   Clear
9:35 AM 53.6 °F - 35.6 °F 51% 29.72 in 10.0 mi South 5.8 mph - N/A   Clear
9:55 AM 55.4 °F - 35.6 °F 47% 29.72 in 5.0 mi SSE 4.6 mph - N/A   Haze
10:15 AM 55.4 °F - 33.8 °F 44% 29.72 in 8.0 mi South 10.4 mph - N/A   Clear
10:35 AM 57.2 °F - 32.0 °F 38% 29.71 in 10.0 mi SE 11.5 mph - N/A   Clear
10:55 AM 59.0 °F - 32.0 °F 36% 29.71 in 10.0 mi SE 11.5 mph - N/A   Clear
11:15 AM 59.0 °F - 32.0 °F 36% 29.71 in 9.0 mi SE 9.2 mph - N/A   Clear
11:35 AM 59.0 °F - 30.2 °F 34% 29.71 in 10.0 mi ESE 10.4 mph 19.6 mph N/A   Clear
11:55 AM 59.0 °F - 30.2 °F 34% 29.71 in 10.0 mi South 12.7 mph - N/A   Clear
12:15 PM 60.8 °F - 28.4 °F 29% 29.70 in 10.0 mi SSE 9.2 mph - N/A   Partly Cloudy
12:35 PM 59.0 °F - 28.4 °F 31% 29.70 in 10.0 mi SSE 6.9 mph - N/A   Scattered Clouds
12:55 PM 59.0 °F - 28.4 °F 31% 29.69 in 10.0 mi SE 10.4 mph - N/A   Mostly Cloudy
1:15 PM 59.0 °F - 28.4 °F 31% 29.69 in 5.0 mi ESE 10.4 mph - N/A   Haze
1:35 PM 59.0 °F - 28.4 °F 31% 29.69 in 10.0 mi SSE 12.7 mph - N/A   Scattered Clouds
1:55 PM 59.0 °F - 28.4 °F 31% 29.69 in 10.0 mi South 10.4 mph - N/A   Partly Cloudy
2:15 PM 59.0 °F - 28.4 °F 31% 29.69 in 8.0 mi SSE 6.9 mph - N/A   Partly Cloudy
2:35 PM 59.0 °F - 30.2 °F 34% 29.69 in 10.0 mi South 13.8 mph 19.6 mph N/A   Mostly Cloudy
2:55 PM 55.4 °F - 35.6 °F 47% 29.69 in 10.0 mi SE 18.4 mph 23.0 mph N/A   Partly Cloudy
3:15 PM 53.6 °F - 41.0 °F 62% 29.71 in 10.0 mi SSE 13.8 mph 18.4 mph N/A   Mostly Cloudy
3:55 PM 50.0 °F - 46.4 °F 87% 29.72 in 9.0 mi SE 9.2 mph - N/A   Mostly Cloudy
4:15 PM 50.0 °F - 44.6 °F 82% 29.72 in 5.0 mi East 10.4 mph - N/A Rain Light Rain
4:35 PM 48.2 °F - 46.4 °F 93% 29.72 in 4.0 mi ENE 10.4 mph - N/A Rain Light Rain
4:55 PM 48.2 °F - 46.4 °F 93% 29.73 in 4.0 mi East 9.2 mph - 0.01 in Rain Light Rain
5:15 PM 48.2 °F - 46.4 °F 93% 29.73 in 3.0 mi East 10.4 mph - 0.01 in Rain Light Rain
5:35 PM 48.2 °F - 48.2 °F 100% 29.72 in 8.0 mi ENE 10.4 mph - 0.01 in Rain Light Rain
5:55 PM 48.2 °F - 46.4 °F 93% 29.72 in 9.0 mi NE 13.8 mph - 0.01 in   Mostly Cloudy
6:15 PM 48.2 °F - 46.4 °F 93% 29.72 in 10.0 mi NE 12.7 mph - N/A   Overcast
6:35 PM 46.4 °F 40.7 °F 46.4 °F 100% 29.72 in 9.0 mi NE 12.7 mph - N/A   Overcast
6:55 PM 46.4 °F 41.5 °F 46.4 °F 100% 29.73 in 10.0 mi NE 10.4 mph - N/A   Overcast
7:15 PM 46.4 °F 41.5 °F 46.4 °F 100% 29.73 in 8.0 mi NE 10.4 mph - N/A   Overcast
7:35 PM 46.4 °F 41.1 °F 46.4 °F 100% 29.73 in 9.0 mi NE 11.5 mph - N/A   Overcast
7:55 PM 46.4 °F 40.4 °F 46.4 °F 100% 29.72 in 10.0 mi NNE 13.8 mph - N/A   Overcast
8:15 PM 46.4 °F 40.7 °F 46.4 °F 100% 29.72 in 5.0 mi NNE 12.7 mph - N/A   Overcast
8:55 PM 46.4 °F 40.1 °F 46.4 °F 100% 29.72 in 4.0 mi NNE 15.0 mph 19.6 mph N/A   Overcast
9:15 PM 46.4 °F 40.7 °F 46.4 °F 100% 29.73 in 6.0 mi North 12.7 mph - N/A   Overcast
9:35 PM 46.4 °F 40.4 °F 46.4 °F 100% 29.74 in 3.0 mi NNE 13.8 mph - N/A   Overcast
9:55 PM 46.4 °F 40.4 °F 46.4 °F 100% 29.75 in 5.0 mi North 13.8 mph - N/A Rain Light Rain
10:15 PM 46.4 °F 39.8 °F 46.4 °F 100% 29.75 in 5.0 mi NNE 16.1 mph - 0.01 in Rain Light Rain
10:35 PM 46.4 °F 40.7 °F 46.4 °F 100% 29.76 in 6.0 mi North 12.7 mph - 0.02 in Rain Light Rain
10:55 PM 46.4 °F 39.5 °F 46.4 °F 100% 29.77 in 4.0 mi North 17.3 mph - 0.04 in Rain Light Rain
11:15 PM 46.4 °F 40.4 °F 46.4 °F 100% 29.78 in 3.0 mi North 13.8 mph - 0.04 in Rain Rain
11:35 PM 44.6 °F 37.4 °F 44.6 °F 100% 29.77 in 5.0 mi North 16.1 mph - 0.07 in Rain Light Rain
11:55 PM 44.6 °F 37.4 °F 44.6 °F 100% 29.77 in 5.0 mi North 16.1 mph - 0.10 in Rain Light Rain